Regional Weather Roundup
Issued by NWS

Home | Current Version | Previous Version | Graphics & Text | Print | Product List | Glossary On
Versions: 1 2 3 4 5 6 7 8 9 10 11 12 13 14 15 16 17 18 19 20 21 22 23 24 25 26 27 28 29 30 31 32 33 34 35 36 37 38 39 40 41 42 43 44 45 46 47 48 49 50
000
ASUS43 KMKX 302200
RWRWI

WISCONSIN REGIONAL WEATHER ROUNDUP
NATIONAL WEATHER SERVICE MILWAUKEE/SULLIVAN WI
500 PM CDT TUE JUN 30 2015

NOTE: "FAIR" INDICATES FEW OR NO CLOUDS BELOW 12,000 FEET WITH NO
SIGNIFICANT WEATHER AND/OR OBSTRUCTIONS TO VISIBILITY.

WIZ001-002-006>008-014>016-023>028-302300-
NORTHWEST WISCONSIN

CITY           SKY/WX    TMP DP  RH WIND       PRES   REMARKS
SUPERIOR ARPT  PTSUNNY   61  50  68 NE9       29.98S
ASHLAND        MOSUNNY   62  51  67 NE10      29.98F
HAYWARD        PTSUNNY   65  50  58 VRB7      29.96F
SIREN          PTSUNNY   70  51  50 NE9       29.94F
CUMBERLAND     MOSUNNY   68  50  52 N8        29.95S
RICE LAKE      MOSUNNY   70  51  51 N7        29.94S
CHETEK         MOSUNNY   69  53  56 N9        29.93S
LADYSMITH      SUNNY     67  52  57 N9        29.95F
EAU CLAIRE     NOT AVBL
MENOMONIE      MOSUNNY   73  52  47 N8        29.91S
NEW RICHMOND   CLOUDY    71  53  52 N8        29.94S
OSCEOLA        PTSUNNY   72  56  57 N7        29.96S
$$

WIZ003>005-009-010-017-018-302300-
NORTH CENTRAL WISCONSIN

CITY           SKY/WX    TMP DP  RH WIND       PRES   REMARKS
MANITOWISH WTR MOSUNNY   60  49  68 NE8       29.96S
ARBOR VITAE    SUNNY     62  50  65 N13G18    29.95S
WOODRUFF       SUNNY     62  50  65 N13G18    29.95S
RHINELANDER    MOSUNNY   63  49  60 VRB6      29.95R
EAGLE RIVER    PTSUNNY   57  46  66 N12       29.95S
LAND O LAKES   PTSUNNY   57  47  68 N9        29.97R
PHILLIPS       PTSUNNY   64  50  61 N9        29.94S
TOMAHAWK       MOSUNNY   64  50  60 NW8       29.94S
MEDFORD        CLOUDY    67  53  62 N12       29.92F
MERRILL        CLOUDY    64  53  66 N8        29.93S
$$

WIZ029-030-035-036-043>047-302300-
CENTRAL WISCONSIN

CITY           SKY/WX    TMP DP  RH WIND       PRES   REMARKS
WAUSAU         CLOUDY    66  52  60 N12       29.90S
MOSINEE        NOT AVBL
MARSHFIELD     PTSUNNY   68  51  54 N9        29.91F
STEVENS POINT  PTSUNNY   67  54  61 NW10G18   29.89R
WAUPACA        MOSUNNY   74  57  54 N13       29.87R
WAUTOMA        NOT AVBL
WISC RAPIDS    PTSUNNY   70  52  52 N14G20    29.90R
CAMP DOUGLAS   NOT AVBL
$$

WIZ011>013-019>022-031-037>040-048>050-302300-
NORTHEAST WISCONSIN

CITY           SKY/WX    TMP DP  RH WIND       PRES   REMARKS
ANTIGO         CLOUDY    65  54  68 N15       29.91R
SHAWANO        CLOUDY    69  55  59 N7        29.87R
OCONTO         CLOUDY    66  55  69 N12       29.85S
STURGEON BAY   CLOUDY    61  54  77 N10G18    29.87S
GREEN BAY      CLOUDY    70  57  63 N8        29.85R
MANITOWOC      NOT AVBL
APPLETON       PTSUNNY   68  55  64 N12G18    29.86S
CLINTONVILLE   PTSUNNY   70  54  56 N9        29.86R
OSHKOSH        PTSUNNY   73  57  57 N10       29.85R
$$

WIZ032>034-041-042-053>061-302300-
SOUTHWEST WISCONSIN

CITY           SKY/WX    TMP DP  RH WIND       PRES   REMARKS
LA CROSSE      MOSUNNY   75  53  46 NW12      29.88S
SPARTA         MOSUNNY   75  51  42 NW9       29.89S
VIROQUA        MOSUNNY   74  56  54 NW14      29.89S
BOSCOBEL       PTSUNNY   75  60  59 N7        29.87S
PRAIRIE DU CHI PTSUNNY   74  57  56 NW6       29.87S
PLATTEVILLE    MOSUNNY   75  61  60 NW6       29.87S
$$

WIZ056-057-062-063-064-067-068-302300-
SOUTH CENTRAL WISCONSIN

CITY           SKY/WX    TMP DP  RH WIND       PRES   REMARKS
REEDSBURG      MOSUNNY   74  60  61 NW10      29.86S
BARABOO/DELLS  MOSUNNY   74  56  53 NW9G18    29.86S
LONE ROCK      NOT AVBL
MINERAL POINT  MOSUNNY   77  59  53 NW6       29.87F
MADISON        PTSUNNY   76  57  51 NW10      29.84S
MIDDLETON      SUNNY     77  54  45 N8        29.85S
WATERTOWN      PTSUNNY   75  60  58 NW10      29.83S
MONROE         MOSUNNY   73  59  60 N6        29.86R
JANESVILLE     NOT AVBL
$$

WIZ051-052-058>065-066-070>072-302300-
SOUTHEAST WISCONSIN

CITY           SKY/WX    TMP DP  RH WIND       PRES   REMARKS
MILWAUKEE      MOSUNNY   63  56  78 NE13      29.85R
WAUKESHA       PTSUNNY   72  59  64 E8G16     29.84S
MILWAUKEE/TIMM MOSUNNY   66  55  68 NE7       29.85R
RACINE         PTSUNNY   63  56  78 N9        29.87R
BURLINGTON     PTSUNNY   74  58  58 NE8       29.83S
KENOSHA        PTSUNNY   65  58  78 E9        29.85R
FOND DU LAC    MOSUNNY   70  59  68 NE12      29.85R
SHEBOYGAN      CLOUDY    63  57  81 NE9       29.84R
WEST BEND      PTSUNNY   72  55  56 N8        29.83S
JUNEAU         MOSUNNY   73  59  62 N8        29.84S
$$

LSZ147-162-302300-
LAKE SUPERIOR

STATION/POSITION TIME  TEMP    WIND        PRES    WAVE
                       AIR SEA DIR/SP/G            HT/PER
                 (UTC) (F)     (DEG/KT/KT) (MB)    (FT/S)
W MID LAKE BUOY  2050   42 39  210/  6/  6 1016.0R   1/ 4
DEVILS ISLAND    2100   52     120/  8/ 11 1016.2S
SAXON HARBOR     2100   54      50/  6/  9 1015.9
$$

LMZ867-665-643>646-302300-
LAKE MICHIGAN

STATION/POSITION TIME  TEMP    WIND        PRES    WAVE
                       AIR SEA DIR/SP/G            HT/PER
                 (UTC) (F)     (DEG/KT/KT) (MB)    (FT/S)
CHAMBERS ISLAND  2100   63     330/ 13/ 16 1011.2R
N MID LAKE BUOY  2050   50 43  320/ 14/ 14 1010.6R   3/ 4
NORTHPORT PIER   2100   59     350/ 19/ 21 1011.2R
SISTER BAY       2114   61     340/ 17/ 21   N/A
ALGOMA LAKESHORE 2110           70/ 11/ 12   N/A
KEWAUNEE LAKESHO 2100   59      40/  7/  9 1010.2R
SHEBOYGAN LAKESH 2100   57      40/ 12/ 14 1010.8R
PORT WASHINGTON  2140   60      50/  7/ 13 1011.2R
ATWATER BUOY     2100   58      30/  8/ 10 1012.1R
MILWAUKEE LAKESH 2100   58      30/ 10/ 12   N/A
KENOSHA   LAKESH 2100   58      20/ 15/ 16 1010.5R
$$

TC  - TEMPERATURE IN CELSIUS
VSB - VISIBILITY IN STATUTE MILES
WCI - WIND CHILL INDEX
HX  - HEAT INDEX




USA.gov is the U.S. government's official web portal to all federal, state and local government web resources and services.